West Palm Beach, FL

4:50 AM EST on November 15, 2019 (GMT -0500)
Palm Beach International

Weather History for KPBI - September, 2019

Change the Weather History Date:

Friday, September 13, 2019

  Actual Average Record
Temperature  
Mean Temperature 82 °F 82 °F  
Max Temperature 88 °F 89 °F 95 °F (1944)
Min Temperature 76 °F 75 °F 67 °F (1931)
Degree Days  
Heating Degree Days 0 0  
Month to date heating degree days 0 0  
Since 1 July heating degree days 0 0  
Cooling Degree Days 17 17  
Month to date cooling degree days 248 221  
Year to date cooling degree days 3414 2927  
Growing Degree Days 32 (Base 50)    
Moisture  
Dew Point 74 °F    
Average Humidity 75    
Maximum Humidity 85    
Minimum Humidity 65    
Precipitation  
Precipitation 0.31 in 0.29 in 5.11 in (2001)
Month to date precipitation 1.24 3.63  
Year to date precipitation 45.20 44.35  
Snow  
Snow 0.00 in - - ()
Month to date snowfall 0.0  
Since 1 July snowfall 0.0  
Since 1 September snowfall 0.0  
Snow Depth 0.00 in    
Sea Level Pressure  
Sea Level Pressure 29.95 in    
Wind  
Wind Speed 17 mph (ENE)    
Max Wind Speed 32 mph    
Max Gust Speed 48 mph    
Visibility 9 miles    
Events Rain , Thunderstorm    
T = Trace of Precipitation, MM = Missing Value Source: NWS Daily Summary

Daily Weather History Graph

Daily Weather History Graph

Search for Another Location

Airport or City:

Astronomy

Sep. 13, 2019 Rise Set
Actual Time 7:05 AM EDT 7:27 PM EDT
Civil Twilight 6:41 AM EDT 7:50 PM EDT
Nautical Twilight 6:14 AM EDT 8:17 PM EDT
Astronomical Twilight 5:47 AM EDT 8:45 PM EDT
Moon 7:33 PM EDT (9/13) 6:30 AM EDT (9/13)
Length of Visible Light 13h 08m
Length of Day
12h 22m
Full, 100% of the Moon is Illuminated
Sep 13
Full
Sep 14
Full
Sep 21
Last Quarter
Sep 28
New
Oct 5
First Quarter

Hourly Weather History & Observations

Time (EDT) Temp. Heat Index Dew Point Humidity Pressure Visibility Wind Dir Wind Speed Gust Speed Precip Events Conditions
12:20 AM 79.0 °F - 73.0 °F 82% 29.96 in 9.0 mi ENE 17.3 mph 32.2 mph 0.00 in Rain , Thunderstorm Light Thunderstorms and Rain
12:39 AM 80.1 °F 84.5 °F 73.9 °F 81% 29.95 in 10.0 mi ENE 8.1 mph - 0.04 in Rain Light Rain
12:53 AM 81.0 °F 86.7 °F 75.0 °F 82% 29.95 in 10.0 mi ENE 12.7 mph - 0.04 in   Mostly Cloudy
1:53 AM 82.0 °F 88.6 °F 75.0 °F 79% 29.93 in 10.0 mi NE 11.5 mph - N/A   Mostly Cloudy
2:53 AM 81.0 °F 86.2 °F 73.9 °F 79% 29.92 in 10.0 mi ENE 12.7 mph - 0.00 in   Mostly Cloudy
3:53 AM 82.0 °F 87.9 °F 73.9 °F 76% 29.91 in 10.0 mi NE 12.7 mph - N/A   Scattered Clouds
4:53 AM 81.0 °F 86.7 °F 75.0 °F 82% 29.91 in 10.0 mi NE 13.8 mph 20.7 mph 0.00 in Rain Light Rain
5:46 AM 81.0 °F 86.7 °F 75.0 °F 82% 29.93 in 10.0 mi East 17.3 mph - 0.03 in Rain , Thunderstorm Light Thunderstorms and Rain
5:53 AM 78.1 °F - 73.9 °F 87% 29.94 in 4.0 mi NNE 21.9 mph 31.1 mph 0.03 in Rain , Thunderstorm Thunderstorms and Rain
6:30 AM 77.0 °F - 72.0 °F 84% 29.94 in 10.0 mi NNE 6.9 mph - 0.03 in   Mostly Cloudy
6:53 AM 78.1 °F - 73.9 °F 87% 29.95 in 10.0 mi NE 5.8 mph - 0.03 in   Mostly Cloudy
7:53 AM 81.0 °F 86.7 °F 75.0 °F 82% 29.95 in 10.0 mi ENE 15.0 mph - N/A   Mostly Cloudy
8:53 AM 82.9 °F 90.2 °F 75.0 °F 77% 29.96 in 10.0 mi ENE 15.0 mph - N/A   Mostly Cloudy
9:07 AM 82.9 °F 89.4 °F 73.9 °F 74% 29.97 in 10.0 mi ENE 18.4 mph 25.3 mph N/A   Mostly Cloudy
9:25 AM 81.0 °F 85.8 °F 73.0 °F 77% 29.97 in 10.0 mi ENE 10.4 mph - 0.00 in   Mostly Cloudy
9:42 AM 81.0 °F 87.3 °F 75.9 °F 85% 29.98 in 5.0 mi ENE 11.5 mph - 0.01 in Rain Rain
9:53 AM 82.0 °F 90.2 °F 77.0 °F 85% 29.98 in 9.0 mi ENE 11.5 mph - 0.01 in Rain Light Rain
10:18 AM 84.0 °F 92.6 °F 75.9 °F 76% 29.98 in 10.0 mi ENE 12.7 mph 21.9 mph 0.00 in   Mostly Cloudy
10:53 AM 84.9 °F 93.3 °F 75.0 °F 72% 29.98 in 10.0 mi ENE 17.3 mph 26.5 mph 0.00 in   Mostly Cloudy
11:53 AM 87.1 °F 96.3 °F 75.0 °F 67% 29.99 in 10.0 mi ENE 18.4 mph 27.6 mph N/A   Mostly Cloudy
12:35 PM 84.0 °F 92.6 °F 75.9 °F 76% 29.98 in 5.0 mi ENE 17.3 mph 31.1 mph 0.00 in Rain Light Rain
12:53 PM 84.9 °F 96.6 °F 78.1 °F 80% 29.98 in 10.0 mi East 19.6 mph 27.6 mph 0.02 in Rain Light Rain
1:26 PM 87.1 °F 96.3 °F 75.0 °F 67% 29.96 in 10.0 mi ENE 19.6 mph 28.8 mph 0.00 in   Mostly Cloudy
1:43 PM 87.1 °F 96.3 °F 75.0 °F 67% 29.96 in 10.0 mi ENE 23.0 mph 29.9 mph 0.00 in Thunderstorm Thunderstorm
1:53 PM 87.1 °F 97.3 °F 75.9 °F 69% 29.96 in 10.0 mi NE 23.0 mph 31.1 mph 0.00 in Thunderstorm Thunderstorm
2:14 PM 87.1 °F 95.4 °F 73.9 °F 65% 29.96 in 10.0 mi NE 21.9 mph 32.2 mph N/A   Scattered Clouds
2:53 PM 88.0 °F 96.5 °F 73.9 °F 63% 29.95 in 10.0 mi NE 19.6 mph 33.4 mph N/A   Scattered Clouds
3:53 PM 88.0 °F 97.5 °F 75.0 °F 65% 29.93 in 10.0 mi NE 25.3 mph 32.2 mph N/A   Mostly Cloudy
4:53 PM 86.0 °F 93.8 °F 73.9 °F 67% 29.94 in 10.0 mi NE 23.0 mph 29.9 mph N/A   Mostly Cloudy
5:53 PM 84.9 °F 91.4 °F 73.0 °F 67% 29.94 in 10.0 mi ENE 19.6 mph 29.9 mph N/A   Mostly Cloudy
6:06 PM 84.9 °F 92.1 °F 73.9 °F 69% 29.93 in 10.0 mi ENE 20.7 mph 27.6 mph N/A   Mostly Cloudy
6:45 PM 79.0 °F - 73.9 °F 84% 29.96 in 6.0 mi ENE 18.4 mph 48.3 mph 0.11 in Rain Light Rain
6:53 PM 79.0 °F - 73.9 °F 84% 29.95 in 5.0 mi NE 15.0 mph 25.3 mph 0.14 in Rain Light Rain
7:04 PM 81.0 °F 86.7 °F 75.0 °F 82% 29.95 in 2.0 mi ENE 21.9 mph 32.2 mph 0.01 in Rain Heavy Rain
7:06 PM 81.0 °F 86.7 °F 75.0 °F 82% 29.95 in 4.0 mi ENE 20.7 mph 32.2 mph 0.01 in Rain Rain
7:53 PM 82.0 °F 87.4 °F 73.0 °F 74% 29.95 in 10.0 mi ENE 21.9 mph 31.1 mph 0.08 in   Mostly Cloudy
8:43 PM 81.0 °F 85.8 °F 73.0 °F 77% 29.96 in 10.0 mi ENE 15.0 mph 26.5 mph N/A   Mostly Cloudy
8:53 PM 82.0 °F 87.9 °F 73.9 °F 76% 29.96 in 10.0 mi ENE 18.4 mph 28.8 mph N/A   Mostly Cloudy
9:53 PM 82.9 °F 88.8 °F 73.0 °F 72% 29.97 in 7.0 mi ENE 23.0 mph 32.2 mph 0.00 in Rain Light Rain
10:53 PM 82.9 °F 88.8 °F 73.0 °F 72% 29.97 in 10.0 mi ENE 16.1 mph - 0.00 in   Scattered Clouds
11:53 PM 82.0 °F 87.4 °F 73.0 °F 74% 29.96 in 10.0 mi ENE 17.3 mph 26.5 mph 0.00 in   Mostly Cloudy